# Mixing ratio of CO2 (xCO2) in dry air measured onboard R/V Kaiyo of the Japan Marine Sciece and Technology Center (JAMSTEC).,,,,,,,,,,,,,,,,,,,,,,
"# Version 2.0; 29 Feb, 2008.",,,,,,,,,,,,,,,,,,,,,,
# Measured by Meteorological Research Institute. ,,,,,,,,,,,,,,,,,,,,,,
# PI : H. Y. Inoue and M. Ishii,,,,,,,,,,,,,,,,,,,,,,
# Concetrarion scale = MRI87,,,,,,,,,,,,,,,,,,,,,,
# Date and Time = UTC,,,,,,,,,,,,,,,,,,,,,,
Ship,Cruise,Serial No.,Date,,,Time,,Latitude,Longitude,xCO2_Air,F,xCO2_Sea,F,Wind_Dir,Wind_Spd,Atm_Prs,Atm_Tmp.,SST,F,SSS,F,pH2O
,,,Year,Month,Day,Hour,Min.,Deg.,Deg.,ppm,,ppm,,Deg.,m/s,hPa,deg.C,deg.C,,,,hPa
Kaiyo,9307,1,1994,1,6,11,35,5.747,173.494,357.45,2,-9.99,9,-99,-9.9,1008.7,-99.9,28.79,2,-9.999,9,39
Kaiyo,9307,2,1994,1,6,11,59,5.717,173.554,-9.99,9,349.83,2,-99,-9.9,1008.8,-99.9,28.69,2,33.96,2,38.8
Kaiyo,9307,3,1994,1,6,12,35,5.672,173.642,357.49,2,-9.99,9,-99,-9.9,1008.8,-99.9,28.63,2,-9.999,9,38.6
Kaiyo,9307,4,1994,1,6,12,59,5.642,173.701,-9.99,9,349.49,2,-99,-9.9,1008.7,-99.9,28.62,2,33.95,2,38.6
Kaiyo,9307,5,1994,1,6,13,35,5.596,173.789,357.39,2,-9.99,9,-99,-9.9,1008.2,-99.9,28.61,2,-9.999,9,38.6
Kaiyo,9307,6,1994,1,6,13,59,5.565,173.847,-9.99,9,352,2,-99,-9.9,1007.8,-99.9,28.76,2,33.92,2,38.9
Kaiyo,9307,7,1994,1,6,14,35,5.518,173.935,357.38,2,-9.99,9,-99,-9.9,1007.5,-99.9,28.6,2,-9.999,9,38.6
Kaiyo,9307,8,1994,1,6,14,59,5.486,173.995,-9.99,9,349.89,2,-99,-9.9,1007.5,-99.9,28.55,2,33.9,2,38.5
Kaiyo,9307,9,1994,1,6,15,35,5.439,174.082,357.32,2,-9.99,9,-99,-9.9,1007.4,-99.9,28.52,2,-9.999,9,38.4
Kaiyo,9307,10,1994,1,6,15,59,5.409,174.14,-9.99,9,355.81,2,-99,-9.9,1007.7,-99.9,28.55,2,33.94,2,38.5
Kaiyo,9307,11,1994,1,6,16,35,5.363,174.229,357.34,2,-9.99,9,-99,-9.9,1007.7,-99.9,28.53,2,-9.999,9,38.4
Kaiyo,9307,12,1994,1,6,16,59,5.332,174.287,-9.99,9,355.78,2,-99,-9.9,1008.2,-99.9,28.56,2,33.99,2,38.5
Kaiyo,9307,13,1994,1,6,17,35,5.285,174.371,357.46,2,-9.99,9,-99,-9.9,1008.4,-99.9,28.48,2,-9.999,9,38.3
Kaiyo,9307,14,1994,1,6,17,59,5.254,174.426,-9.99,9,357.42,2,-99,-9.9,1008.4,-99.9,28.54,2,34,2,38.4
Kaiyo,9307,15,1994,1,6,18,35,5.211,174.512,357.46,2,-9.99,9,-99,-9.9,1009,-99.9,28.68,2,-9.999,9,38.7
Kaiyo,9307,16,1994,1,6,18,59,5.182,174.572,-9.99,9,375.68,2,-99,-9.9,1009.2,-99.9,28.83,2,34.24,2,39.1
Kaiyo,9307,17,1994,1,6,19,35,5.143,174.666,357.43,2,-9.99,9,-99,-9.9,1009.2,-99.9,28.99,2,-9.999,9,39.5
Kaiyo,9307,18,1994,1,6,19,59,5.117,174.727,-9.99,9,377.53,2,-99,-9.9,1009.5,-99.9,28.92,2,34.61,2,39.3
Kaiyo,9307,19,1994,1,6,20,35,5.077,174.818,357.58,2,-9.99,9,-99,-9.9,1010,-99.9,29.01,2,-9.999,9,39.5
Kaiyo,9307,20,1994,1,6,20,59,5.05,174.88,-9.99,9,381.02,2,-99,-9.9,1010,-99.9,29.02,2,34.76,2,39.5
Kaiyo,9307,21,1994,1,6,21,35,5.012,174.972,357.48,2,-9.99,9,-99,-9.9,1010.2,-99.9,28.95,2,-9.999,9,39.4
Kaiyo,9307,22,1994,1,6,21,59,5,175.031,-9.99,9,380.36,2,-99,-9.9,1010.2,-99.9,28.92,2,34.72,2,39.3
Kaiyo,9307,23,1994,1,6,22,35,5.001,175.043,357.36,2,-9.99,9,-99,-9.9,1009.8,-99.9,29.02,2,-9.999,9,39.5
Kaiyo,9307,24,1994,1,6,22,59,5.001,175.05,-9.99,9,385.38,2,-99,-9.9,1009.8,-99.9,28.97,2,34.74,2,39.4
Kaiyo,9307,25,1994,1,6,23,35,5,175.061,357.45,2,-9.99,9,-99,-9.9,1009.4,-99.9,29.14,2,-9.999,9,39.8
Kaiyo,9307,26,1994,1,6,23,59,5,175.066,-9.99,9,390.07,2,-99,-9.9,1009.4,-99.9,29.18,2,34.81,2,39.9
Kaiyo,9307,27,1994,1,7,0,35,4.998,175.163,357.47,2,-9.99,9,-99,-9.9,1009,-99.9,29.04,2,-9.999,9,39.6
Kaiyo,9307,28,1994,1,7,0,59,4.995,175.232,-9.99,9,381.3,2,-99,-9.9,1008.9,-99.9,28.93,2,34.72,2,39.3
Kaiyo,9307,29,1994,1,7,1,35,4.995,175.336,357.39,2,-9.99,9,-99,-9.9,1008.7,-99.9,28.84,2,-9.999,9,39.1
Kaiyo,9307,30,1994,1,7,1,59,4.996,175.406,-9.99,9,375.39,2,-99,-9.9,1008,-99.9,28.72,2,34.58,2,38.8
Kaiyo,9307,31,1994,1,7,1,35,4.995,175.336,339.3,4,-9.99,9,-99,-9.9,1008.7,-99.9,28.84,2,-9.999,9,39.1
Kaiyo,9307,32,1994,1,7,1,59,4.996,175.406,-9.99,9,326.95,4,-99,-9.9,1008,-99.9,28.72,2,34.57,2,38.8
Kaiyo,9307,33,1994,1,7,3,49,4.999,175.705,358.02,4,-9.99,9,-99,-9.9,1007.7,-99.9,28.61,2,-9.999,9,38.6
Kaiyo,9307,34,1994,1,7,4,13,4.997,175.774,-9.99,9,381.34,2,-99,-9.9,1007.8,-99.9,28.61,2,34.59,2,38.6
Kaiyo,9307,35,1994,1,7,3,49,4.999,175.705,338.51,4,-9.99,9,-99,-9.9,1007.7,-99.9,28.61,2,-9.999,9,38.6
Kaiyo,9307,36,1994,1,7,4,13,4.997,175.774,-9.99,9,325.88,4,-99,-9.9,1007.8,-99.9,28.61,2,34.52,2,38.6
Kaiyo,9307,37,1994,1,7,5,34,4.994,176,357.55,2,-9.99,9,-99,-9.9,1008.4,-99.9,28.6,2,-9.999,9,38.6
Kaiyo,9307,38,1994,1,7,5,58,4.993,176.066,-9.99,9,382.77,2,-99,-9.9,1008.8,-99.9,28.68,2,34.61,2,38.7
Kaiyo,9307,39,1994,1,7,6,34,4.994,176.168,357.73,2,-9.99,9,-99,-9.9,1009,-99.9,28.75,2,-9.999,9,38.9
Kaiyo,9307,40,1994,1,7,6,58,4.993,176.235,-9.99,9,384.37,2,-99,-9.9,1009.2,-99.9,28.77,2,34.74,2,39
Kaiyo,9307,41,1994,1,7,6,34,4.994,176.168,337.55,4,-9.99,9,-99,-9.9,1009,-99.9,28.75,2,-9.999,9,38.9
Kaiyo,9307,42,1994,1,7,6,58,4.993,176.235,-9.99,9,325.06,4,-99,-9.9,1009.2,-99.9,28.77,2,34.78,2,39
Kaiyo,9307,43,1994,1,7,8,34,4.998,176.511,357.49,2,-9.99,9,-99,-9.9,1010,-99.9,28.82,2,-9.999,9,39.1
Kaiyo,9307,44,1994,1,7,8,58,5.001,176.575,-9.99,9,377.34,2,-99,-9.9,1009.8,-99.9,28.74,2,34.8,2,38.9
Kaiyo,9307,45,1994,1,7,9,34,4.999,176.671,357.47,2,-9.99,9,-99,-9.9,1010.2,-99.9,28.74,2,-9.999,9,38.9
Kaiyo,9307,46,1994,1,7,9,58,4.998,176.734,-9.99,9,374.32,2,-99,-9.9,1009.8,-99.9,28.77,2,34.66,2,39
Kaiyo,9307,47,1994,1,7,10,34,4.997,176.834,357.32,2,-9.99,9,-99,-9.9,1009.5,-99.9,28.83,2,-9.999,9,39.1
Kaiyo,9307,48,1994,1,7,10,58,4.997,176.902,-9.99,9,378,2,-99,-9.9,1009.4,-99.9,28.86,2,34.7,2,39.2
Kaiyo,9307,49,1994,1,7,11,34,4.995,177.008,357.31,2,-9.99,9,-99,-9.9,1009,-99.9,28.86,2,-9.999,9,39.2
Kaiyo,9307,50,1994,1,7,11,58,4.994,177.077,-9.99,9,375.42,2,-99,-9.9,1008.9,-99.9,28.81,2,34.71,2,39
Kaiyo,9307,51,1994,1,7,12,34,4.994,177.182,357.39,2,-9.99,9,-99,-9.9,1008.7,-99.9,28.78,2,-9.999,9,39
Kaiyo,9307,52,1994,1,7,12,58,4.993,177.25,-9.99,9,377.67,2,-99,-9.9,1008,-99.9,28.81,2,34.68,2,39
Kaiyo,9307,53,1994,1,7,13,34,4.995,177.358,357.43,2,-9.99,9,-99,-9.9,1007.7,-99.9,28.79,2,-9.999,9,39
Kaiyo,9307,54,1994,1,7,13,58,4.996,177.429,-9.99,9,384.84,2,-99,-9.9,1007.4,-99.9,28.78,2,34.74,2,39
Kaiyo,9307,55,1994,1,7,14,34,5,177.538,357.33,2,-9.99,9,-99,-9.9,1007.2,-99.9,28.75,2,-9.999,9,38.9
Kaiyo,9307,56,1994,1,7,14,58,5.004,177.609,-9.99,9,393.46,2,-99,-9.9,1007.4,-99.9,28.79,2,34.84,2,39
Kaiyo,9307,57,1994,1,7,15,34,5.01,177.717,357.59,2,-9.99,9,-99,-9.9,1007.4,-99.9,28.81,2,-9.999,9,39
Kaiyo,9307,58,1994,1,7,15,58,5.012,177.789,-9.99,9,387.14,2,-99,-9.9,1007.7,-99.9,28.86,2,34.88,2,39.2
Kaiyo,9307,59,1994,1,7,15,34,5.01,177.717,338.14,4,-9.99,9,-99,-9.9,1007.4,-99.9,28.81,2,-9.999,9,39
Kaiyo,9307,60,1994,1,7,15,58,5.012,177.789,-9.99,9,326.02,4,-99,-9.9,1007.7,-99.9,28.86,2,34.86,2,39.2
Kaiyo,9307,61,1994,1,7,15,34,5.01,177.717,338,4,-9.99,9,-99,-9.9,1007.4,-99.9,28.81,2,-9.999,9,39
Kaiyo,9307,62,1994,1,7,15,58,5.012,177.789,-9.99,9,325.7,4,-99,-9.9,1007.7,-99.9,28.86,2,34.86,2,39.2
Kaiyo,9307,63,1994,1,7,18,34,5.013,178.242,357.42,2,-9.99,9,-99,-9.9,1008.8,-99.9,28.79,2,-9.999,9,39
Kaiyo,9307,64,1994,1,7,18,58,5.012,178.309,-9.99,9,378.07,2,-99,-9.9,1009.2,-99.9,28.86,2,34.84,2,39.2
Kaiyo,9307,65,1994,1,7,19,34,5.008,178.41,357.52,2,-9.99,9,-99,-9.9,1009.5,-99.9,28.91,2,-9.999,9,39.3
Kaiyo,9307,66,1994,1,7,19,58,5.008,178.475,-9.99,9,377.98,2,-99,-9.9,1009.8,-99.9,28.85,2,34.8,2,39.1
Kaiyo,9307,67,1994,1,7,20,34,5.007,178.574,357.49,2,-9.99,9,-99,-9.9,1009.7,-99.9,28.9,2,-9.999,9,39.3
Kaiyo,9307,68,1994,1,7,20,58,5.006,178.639,-9.99,9,377.61,2,-99,-9.9,1009.8,-99.9,28.91,2,34.77,2,39.3
Kaiyo,9307,69,1994,1,7,21,34,5.004,178.737,357.53,2,-9.99,9,-99,-9.9,1009.7,-99.9,28.96,2,-9.999,9,39.4
Kaiyo,9307,70,1994,1,7,21,58,5.005,178.784,-9.99,9,378.26,2,-99,-9.9,1010,-99.9,29,2,34.7,2,39.5
Kaiyo,9307,71,1994,1,7,22,34,5.012,178.788,357.59,2,-9.99,9,-99,-9.9,1009.5,-99.9,29.07,2,-9.999,9,39.6
Kaiyo,9307,72,1994,1,7,22,58,5.016,178.791,-9.99,9,385.8,2,-99,-9.9,1009.2,-99.9,29.1,2,34.76,2,39.7
Kaiyo,9307,73,1994,1,7,23,34,5.021,178.797,357.5,2,-9.99,9,-99,-9.9,1008.9,-99.9,29.11,2,-9.999,9,39.7
Kaiyo,9307,74,1994,1,7,23,58,5.018,178.86,-9.99,9,380.42,2,-99,-9.9,1008.4,-99.9,29.07,2,-9.999,9,39.6
Kaiyo,9307,75,1994,1,8,0,34,5.011,178.965,357.7,2,-9.99,9,-99,-9.9,1008,-99.9,29.12,2,-9.999,9,39.7
Kaiyo,9307,76,1994,1,8,0,58,5.007,179.033,-9.99,9,382.03,2,-99,-9.9,1007.7,-99.9,29.15,2,34.79,2,39.8
Kaiyo,9307,77,1994,1,8,1,34,5.002,179.136,357.52,2,-9.99,9,-99,-9.9,1007,-99.9,29.15,2,-9.999,9,39.8
Kaiyo,9307,78,1994,1,8,1,58,5,179.205,-9.99,9,383.53,2,-99,-9.9,1006.8,-99.9,29.19,2,34.8,2,39.9
Kaiyo,9307,79,1994,1,8,2,34,5,179.309,357.59,2,-9.99,9,-99,-9.9,1006.4,-99.9,29.23,2,-9.999,9,40
Kaiyo,9307,80,1994,1,8,2,58,4.999,179.377,-9.99,9,384.59,2,-99,-9.9,1006.2,-99.9,29.24,2,34.8,2,40
Kaiyo,9307,81,1994,1,8,3,34,4.998,179.481,357.46,2,-9.99,9,-99,-9.9,1005.9,-99.9,29.22,2,-9.999,9,40
Kaiyo,9307,82,1994,1,8,3,58,4.997,179.548,-9.99,9,380.85,2,-99,-9.9,1006.2,-99.9,29.2,2,34.81,2,39.9
Kaiyo,9307,83,1994,1,8,4,34,4.999,179.653,357.35,2,-9.99,9,-99,-9.9,1006.5,-99.9,29.1,2,-9.999,9,39.7
Kaiyo,9307,84,1994,1,8,4,58,4.999,179.72,-9.99,9,377.84,2,-99,-9.9,1006.5,-99.9,29.07,2,34.77,2,39.6
Kaiyo,9307,85,1994,1,8,5,34,4.999,179.823,357.36,2,-9.99,9,-99,-9.9,1007.2,-99.9,28.99,2,-9.999,9,39.5
Kaiyo,9307,86,1994,1,8,5,58,5,179.888,-9.99,9,376.96,2,-99,-9.9,1007.7,-99.9,28.96,2,34.65,2,39.4
Kaiyo,9307,87,1994,1,8,6,34,5.001,179.992,357.29,2,-9.99,9,-99,-9.9,1008,-99.9,28.97,2,-9.999,9,39.4
Kaiyo,9307,88,1994,1,8,6,58,5.002,180.061,-9.99,9,379.69,2,-99,-9.9,1008,-99.9,29,2,34.7,2,39.5
Kaiyo,9307,89,1994,1,8,7,34,5.004,180.171,357.38,2,-9.99,9,-99,-9.9,1008.4,-99.9,28.87,2,-9.999,9,39.2
Kaiyo,9307,90,1994,1,8,7,58,5.004,180.241,-9.99,9,379.29,2,-99,-9.9,1008.9,-99.9,28.81,2,34.71,2,39
Kaiyo,9307,91,1994,1,8,8,34,5.005,180.353,357.34,2,-9.99,9,-99,-9.9,1008.7,-99.9,28.8,2,-9.999,9,39
Kaiyo,9307,92,1994,1,8,8,58,5.007,180.436,-9.99,9,383.98,2,-99,-9.9,1008.3,-99.9,28.82,2,34.74,2,39.1
Kaiyo,9307,93,1994,1,8,9,34,5.007,180.559,357.38,2,-9.99,9,-99,-9.9,1008.3,-99.9,28.8,2,-9.999,9,39
Kaiyo,9307,94,1994,1,8,9,58,5.005,180.638,-9.99,9,386.06,2,-99,-9.9,1008.4,-99.9,28.87,2,34.8,2,39.2
Kaiyo,9307,95,1994,1,8,10,34,5.002,180.757,357.42,2,-9.99,9,-99,-9.9,1007.8,-99.9,28.81,2,-9.999,9,39
Kaiyo,9307,96,1994,1,8,10,58,5,180.835,-9.99,9,383.33,2,-99,-9.9,1008,-99.9,28.76,2,34.84,2,38.9
Kaiyo,9307,97,1994,1,8,11,34,4.998,180.959,357.47,2,-9.99,9,-99,-9.9,1007.7,-99.9,28.69,2,-9.999,9,38.8
Kaiyo,9307,98,1994,1,8,11,58,5,181.04,-9.99,9,388.36,2,-99,-9.9,1007.5,-99.9,28.8,2,34.83,2,39
Kaiyo,9307,99,1994,1,8,12,34,5.002,181.164,357.61,2,-9.99,9,-99,-9.9,1007.5,-99.9,28.87,2,-9.999,9,39.2
Kaiyo,9307,100,1994,1,8,12,58,5.005,181.246,-9.99,9,384.98,2,-99,-9.9,1006.9,-99.9,28.88,2,34.89,2,39.2
Kaiyo,9307,101,1994,1,8,13,34,5.007,181.369,357.47,2,-9.99,9,-99,-9.9,1006.8,-99.9,28.78,2,-9.999,9,39
Kaiyo,9307,102,1994,1,8,13,58,5.009,181.45,-9.99,9,383.79,2,-99,-9.9,1006.3,-99.9,28.83,2,34.89,2,39.1
Kaiyo,9307,103,1994,1,8,14,34,5.008,181.572,357.37,2,-9.99,9,-99,-9.9,1006.2,-99.9,28.86,2,-9.999,9,39.2
Kaiyo,9307,104,1994,1,8,14,58,5.006,181.651,-9.99,9,382.86,2,-99,-9.9,1006.2,-99.9,28.83,2,34.88,2,39.1
Kaiyo,9307,105,1994,1,8,15,34,5.003,181.77,357.29,2,-9.99,9,-99,-9.9,1005.9,-99.9,28.79,2,-9.999,9,39
Kaiyo,9307,106,1994,1,8,15,58,5.001,181.849,-9.99,9,373.93,2,-99,-9.9,1006.4,-99.9,28.64,2,34.75,2,38.7
Kaiyo,9307,107,1994,1,8,16,34,4.996,181.968,357.28,2,-9.99,9,-99,-9.9,1006.5,-99.9,28.69,2,-9.999,9,38.8
Kaiyo,9307,108,1994,1,8,16,58,4.993,182.046,-9.99,9,373.85,2,-99,-9.9,1007,-99.9,28.75,2,34.72,2,38.9
Kaiyo,9307,109,1994,1,8,17,34,4.99,182.168,357.27,2,-9.99,9,-99,-9.9,1007.2,-99.9,28.74,2,-9.999,9,38.9
Kaiyo,9307,110,1994,1,8,17,58,4.99,182.248,-9.99,9,381.09,2,-99,-9.9,1007.5,-99.9,28.78,2,34.74,2,39
Kaiyo,9307,111,1994,1,8,18,34,4.995,182.37,357.26,2,-9.99,9,-99,-9.9,1007.4,-99.9,28.93,2,-9.999,9,39.3
Kaiyo,9307,112,1994,1,8,18,58,4.999,182.452,-9.99,9,387.65,2,-99,-9.9,1007.7,-99.9,28.93,2,34.78,2,39.3
Kaiyo,9307,113,1994,1,8,19,34,5,182.578,357.49,2,-9.99,9,-99,-9.9,1008,-99.9,28.92,2,-9.999,9,39.3
Kaiyo,9307,114,1994,1,8,19,58,5.001,182.659,-9.99,9,387.44,2,-99,-9.9,1008.3,-99.9,29,2,34.77,2,39.5
Kaiyo,9307,115,1994,1,8,20,34,5.003,182.784,357.53,2,-9.99,9,-99,-9.9,1008.4,-99.9,28.97,2,-9.999,9,39.4
Kaiyo,9307,116,1994,1,8,20,58,5.003,182.865,-9.99,9,384.08,2,-99,-9.9,1008.7,-99.9,29.01,2,34.77,2,39.5
Kaiyo,9307,117,1994,1,8,21,34,5.004,182.987,357.47,2,-9.99,9,-99,-9.9,1008.3,-99.9,28.98,2,-9.999,9,39.4
Kaiyo,9307,118,1994,1,8,21,58,5.004,183.067,-9.99,9,380.56,2,-99,-9.9,1008.3,-99.9,29,2,34.74,2,39.5
Kaiyo,9307,119,1994,1,8,22,34,5.008,183.076,357.57,2,-9.99,9,-99,-9.9,1008,-99.9,29.06,2,-9.999,9,39.6
Kaiyo,9307,120,1994,1,8,22,58,5.01,183.081,-9.99,9,383.67,2,-99,-9.9,1008,-99.9,29.01,2,34.74,2,39.5
Kaiyo,9307,121,1994,1,8,23,34,5.013,183.087,357.69,2,-9.99,9,-99,-9.9,1007.7,-99.9,28.88,2,-9.999,9,39.2
Kaiyo,9307,122,1994,1,8,23,58,5.009,183.15,-9.99,9,380.93,2,-99,-9.9,1007,-99.9,28.98,2,34.72,2,39.4
Kaiyo,9307,123,1994,1,9,0,34,5.001,183.255,357.61,2,-9.99,9,-99,-9.9,1006.5,-99.9,28.96,2,-9.999,9,39.4
Kaiyo,9307,124,1994,1,9,0,58,4.998,183.324,-9.99,9,382.87,2,-99,-9.9,1006.3,-99.9,29.09,2,34.73,2,39.7
Kaiyo,9307,125,1994,1,9,1,34,4.998,183.434,357.5,2,-9.99,9,-99,-9.9,1005.8,-99.9,29.09,2,-9.999,9,39.7
Kaiyo,9307,126,1994,1,9,1,58,4.998,183.502,-9.99,9,380.07,2,-99,-9.9,1005.8,-99.9,28.97,2,34.74,2,39.4
Kaiyo,9307,127,1994,1,9,2,34,4.998,183.609,357.65,2,-9.99,9,-99,-9.9,1005.9,-99.9,29.02,2,-9.999,9,39.5
Kaiyo,9307,128,1994,1,9,2,58,4.998,183.68,-9.99,9,379.73,2,-99,-9.9,1005.7,-99.9,29.06,2,34.72,2,39.6
Kaiyo,9307,129,1994,1,9,3,34,4.999,183.789,357.69,2,-9.99,9,-99,-9.9,1006.3,-99.9,29.03,2,-9.999,9,39.6
Kaiyo,9307,130,1994,1,9,3,58,4.999,183.86,-9.99,9,376.97,2,-99,-9.9,1005.9,-99.9,29,2,34.71,2,39.5
Kaiyo,9307,131,1994,1,9,4,34,4.998,183.957,357.44,2,-9.99,9,-99,-9.9,1006.3,-99.9,29.04,2,-9.999,9,39.6
Kaiyo,9307,132,1994,1,9,4,58,4.998,184.036,-9.99,9,378.23,2,-99,-9.9,1006.5,-99.9,29.02,2,34.7,2,39.5
Kaiyo,9307,133,1994,1,9,5,34,4.997,184.159,357.43,2,-9.99,9,-99,-9.9,1006.9,-99.9,28.92,2,-9.999,9,39.3
Kaiyo,9307,134,1994,1,9,5,58,4.996,184.24,-9.99,9,377.97,2,-99,-9.9,1007.2,-99.9,28.93,2,34.71,2,39.3
Kaiyo,9307,135,1994,1,9,6,34,4.998,184.365,357.37,2,-9.99,9,-99,-9.9,1007.7,-99.9,28.96,2,-9.999,9,39.4
Kaiyo,9307,136,1994,1,9,6,58,4.998,184.445,-9.99,9,379.64,2,-99,-9.9,1007.7,-99.9,28.98,2,34.7,2,39.4
Kaiyo,9307,137,1994,1,9,7,34,4.998,184.568,357.36,2,-9.99,9,-99,-9.9,1008,-99.9,28.94,2,-9.999,9,39.3
Kaiyo,9307,138,1994,1,9,7,58,4.998,184.649,-9.99,9,379.92,2,-99,-9.9,1008.3,-99.9,28.93,2,34.69,2,39.3
Kaiyo,9307,139,1994,1,9,8,34,4.999,184.773,357.39,2,-9.99,9,-99,-9.9,1008.4,-99.9,28.97,2,-9.999,9,39.4
Kaiyo,9307,140,1994,1,9,8,58,5,184.853,-9.99,9,377.41,2,-99,-9.9,1008.3,-99.9,28.97,2,34.7,2,39.4
Kaiyo,9307,141,1994,1,9,9,34,5.001,184.978,357.34,2,-9.99,9,-99,-9.9,1008.7,-99.9,28.97,2,-9.999,9,39.4
Kaiyo,9307,142,1994,1,9,9,58,5.001,185.059,-9.99,9,380.4,2,-99,-9.9,1008.7,-99.9,28.95,2,34.71,2,39.4
Kaiyo,9307,143,1994,1,9,10,34,5.003,185.182,357.31,2,-9.99,9,-99,-9.9,1008.4,-99.9,28.95,2,-9.999,9,39.4
Kaiyo,9307,144,1994,1,9,10,58,5.006,185.264,-9.99,9,376.64,2,-99,-9.9,1008.3,-99.9,28.9,2,34.73,2,39.3
Kaiyo,9307,145,1994,1,9,11,34,5.01,185.387,357.32,2,-9.99,9,-99,-9.9,1008.3,-99.9,28.83,2,-9.999,9,39.1
Kaiyo,9307,146,1994,1,9,11,58,5.009,185.468,-9.99,9,370.87,2,-99,-9.9,1008,-99.9,28.78,2,34.69,2,39
Kaiyo,9307,147,1994,1,9,12,34,5.006,185.594,357.34,2,-9.99,9,-99,-9.9,1007.8,-99.9,28.73,2,-9.999,9,38.9
Kaiyo,9307,148,1994,1,9,12,58,5.004,185.675,-9.99,9,369.58,2,-99,-9.9,1007.4,-99.9,28.72,2,34.63,2,38.8
Kaiyo,9307,149,1994,1,9,13,34,5.001,185.8,357.33,2,-9.99,9,-99,-9.9,1007,-99.9,28.76,2,-9.999,9,38.9
Kaiyo,9307,150,1994,1,9,13,58,4.999,185.881,-9.99,9,370.74,2,-99,-9.9,1007,-99.9,28.8,2,34.57,2,39
Kaiyo,9307,151,1994,1,9,14,34,4.996,186.005,357.41,2,-9.99,9,-99,-9.9,1006.9,-99.9,28.77,2,-9.999,9,39
Kaiyo,9307,152,1994,1,9,14,58,4.995,186.086,-9.99,9,369.95,2,-99,-9.9,1007,-99.9,28.83,2,34.54,2,39.1
Kaiyo,9307,153,1994,1,9,15,34,4.995,186.208,357.33,2,-9.99,9,-99,-9.9,1006.9,-99.9,28.76,2,-9.999,9,38.9
Kaiyo,9307,154,1994,1,9,15,58,4.996,186.288,-9.99,9,369.6,2,-99,-9.9,1007.4,-99.9,28.75,2,34.52,2,38.9
Kaiyo,9307,155,1994,1,9,16,34,4.997,186.41,357.4,2,-9.99,9,-99,-9.9,1007.2,-99.9,28.73,2,-9.999,9,38.9
Kaiyo,9307,156,1994,1,9,16,58,4.997,186.491,-9.99,9,370.99,2,-99,-9.9,1007.2,-99.9,28.75,2,34.52,2,38.9
Kaiyo,9307,157,1994,1,9,17,34,4.998,186.614,357.38,2,-9.99,9,-99,-9.9,1007.5,-99.9,28.66,2,-9.999,9,38.7
Kaiyo,9307,158,1994,1,9,17,58,4.999,186.693,-9.99,9,368.8,2,-99,-9.9,1008.2,-99.9,28.65,2,34.53,2,38.7
Kaiyo,9307,159,1994,1,9,18,34,5,186.813,357.7,2,-9.99,9,-99,-9.9,1008.7,-99.9,28.64,2,-9.999,9,38.7
Kaiyo,9307,160,1994,1,9,18,58,4.998,186.892,-9.99,9,369.38,2,-99,-9.9,1008.8,-99.9,28.68,2,34.49,2,38.7
Kaiyo,9307,161,1994,1,9,19,34,4.996,187.015,357.62,2,-9.99,9,-99,-9.9,1009.7,-99.9,28.63,2,-9.999,9,38.6
Kaiyo,9307,162,1994,1,9,19,58,4.997,187.095,-9.99,9,368.38,2,-99,-9.9,1009.8,-99.9,28.63,2,34.51,2,38.6
Kaiyo,9307,163,1994,1,9,20,34,4.996,187.218,357.28,2,-9.99,9,-99,-9.9,1009.8,-99.9,28.6,2,-9.999,9,38.6
Kaiyo,9307,164,1994,1,9,20,58,4.996,187.299,-9.99,9,365.53,2,-99,-9.9,1009.8,-99.9,28.62,2,34.53,2,38.6
Kaiyo,9307,165,1994,1,9,21,34,4.997,187.411,357.5,2,-9.99,9,-99,-9.9,1009.5,-99.9,28.68,2,-9.999,9,38.7
Kaiyo,9307,166,1994,1,9,21,58,4.998,187.415,-9.99,9,370.41,2,-99,-9.9,1009.4,-99.9,28.79,2,34.51,2,39
Kaiyo,9307,167,1994,1,9,22,34,4.999,187.421,357.64,2,-9.99,9,-99,-9.9,1009.2,-99.9,28.72,2,-9.999,9,38.8
Kaiyo,9307,168,1994,1,9,22,58,5,187.425,-9.99,9,371.9,2,-99,-9.9,1009,-99.9,28.83,2,34.52,2,39.1
Kaiyo,9307,169,1994,1,9,23,34,4.996,187.44,357.74,2,-9.99,9,-99,-9.9,1008.3,-99.9,28.8,2,-9.999,9,39
Kaiyo,9307,170,1994,1,9,23,58,4.996,187.472,-9.99,9,370.63,2,-99,-9.9,1008,-99.9,28.84,2,34.52,2,39.1
Kaiyo,9307,171,1994,1,10,0,34,5.001,187.575,357.9,2,-9.99,9,-99,-9.9,1007.7,-99.9,28.82,2,-9.999,9,39.1
Kaiyo,9307,172,1994,1,10,0,58,5.006,187.642,-9.99,9,372.8,2,-99,-9.9,1006.9,-99.9,28.86,2,34.52,2,39.2
Kaiyo,9307,173,1994,1,10,1,34,5.006,187.744,357.71,2,-9.99,9,-99,-9.9,1006.4,-99.9,28.89,2,-9.999,9,39.2
Kaiyo,9307,174,1994,1,10,1,58,5.003,187.81,-9.99,9,380.11,2,-99,-9.9,1006.5,-99.9,28.84,2,34.56,2,39.1
Kaiyo,9307,175,1994,1,10,2,34,5,187.911,357.72,2,-9.99,9,-99,-9.9,1006.8,-99.9,28.84,2,-9.999,9,39.1
Kaiyo,9307,176,1994,1,10,2,58,4.997,187.978,-9.99,9,380.37,2,-99,-9.9,1006.8,-99.9,28.77,2,34.58,2,39
Kaiyo,9307,177,1994,1,10,3,34,4.996,188.078,357.68,2,-9.99,9,-99,-9.9,1006.8,-99.9,28.82,2,-9.999,9,39.1
Kaiyo,9307,178,1994,1,10,3,58,4.997,188.146,-9.99,9,386.79,2,-99,-9.9,1006.8,-99.9,28.8,2,34.59,2,39
Kaiyo,9307,179,1994,1,10,4,34,5.002,188.252,357.88,2,-9.99,9,-99,-9.9,1007.4,-99.9,28.68,2,-9.999,9,38.7
Kaiyo,9307,180,1994,1,10,4,58,5.005,188.321,-9.99,9,399.62,2,-99,-9.9,1007,-99.9,28.62,2,34.68,2,38.6
Kaiyo,9307,181,1994,1,10,5,34,5.008,188.43,357.96,2,-9.99,9,-99,-9.9,1007.7,-99.9,28.35,2,-9.999,9,38
Kaiyo,9307,182,1994,1,10,5,58,5.011,188.501,-9.99,9,408.12,2,-99,-9.9,1008,-99.9,28.33,2,34.78,2,38
Kaiyo,9307,183,1994,1,10,6,34,5.013,188.609,357.69,2,-9.99,9,-99,-9.9,1008.4,-99.9,28.22,2,-9.999,9,37.7
Kaiyo,9307,184,1994,1,10,6,58,5.014,188.679,-9.99,9,400.86,2,-99,-9.9,1008.7,-99.9,28.2,2,34.79,2,37.7
Kaiyo,9307,185,1994,1,10,7,34,5.014,188.783,357.7,2,-9.99,9,-99,-9.9,1008.9,-99.9,28.16,2,-9.999,9,37.6
Kaiyo,9307,186,1994,1,10,7,58,5.01,188.851,-9.99,9,402.11,2,-99,-9.9,1009.2,-99.9,28.19,2,34.75,2,37.7
Kaiyo,9307,187,1994,1,10,8,34,5.008,188.956,357.71,2,-9.99,9,-99,-9.9,1009,-99.9,28.18,2,-9.999,9,37.6
Kaiyo,9307,188,1994,1,10,8,58,5.007,189.023,-9.99,9,403,2,-99,-9.9,1009,-99.9,28.18,2,34.78,2,37.6
Kaiyo,9307,189,1994,1,10,9,34,5.005,189.137,357.65,2,-9.99,9,-99,-9.9,1008.8,-99.9,28.22,2,-9.999,9,37.7
Kaiyo,9307,190,1994,1,10,9,58,5.005,189.215,-9.99,9,405.43,2,-99,-9.9,1008.9,-99.9,28.25,2,34.82,2,37.8
Kaiyo,9307,191,1994,1,10,10,34,5.005,189.337,357.68,2,-9.99,9,-99,-9.9,1008.4,-99.9,28.24,2,-9.999,9,37.8
Kaiyo,9307,192,1994,1,10,10,58,5.004,189.418,-9.99,9,404.4,2,-99,-9.9,1008.4,-99.9,28.25,2,34.85,2,37.8
Kaiyo,9307,193,1994,1,10,11,34,5.005,189.541,357.66,2,-9.99,9,-99,-9.9,1008.2,-99.9,28.25,2,-9.999,9,37.8
Kaiyo,9307,194,1994,1,10,11,58,5.006,189.622,-9.99,9,405.16,2,-99,-9.9,1008.2,-99.9,28.27,2,34.86,2,37.8
Kaiyo,9307,195,1994,1,10,12,34,5.006,189.748,357.7,2,-9.99,9,-99,-9.9,1007.8,-99.9,28.27,2,-9.999,9,37.8
Kaiyo,9307,196,1994,1,10,12,58,5.005,189.83,-9.99,9,402.62,2,-99,-9.9,1007.7,-99.9,28.3,2,34.86,2,37.9
Kaiyo,9307,197,1994,1,10,13,34,5.004,189.955,357.65,2,-9.99,9,-99,-9.9,1007.4,-99.9,28.29,2,-9.999,9,37.9
Kaiyo,9307,198,1994,1,10,13,58,5.006,190.038,-9.99,9,402.55,2,-99,-9.9,1007.4,-99.9,28.32,2,34.86,2,37.9
Kaiyo,9307,199,1994,1,10,14,34,5.004,190.165,357.57,2,-9.99,9,-99,-9.9,1007.4,-99.9,28.33,2,-9.999,9,38
Kaiyo,9307,200,1994,1,10,14,58,5.002,190.248,-9.99,9,396,2,-99,-9.9,1007.4,-99.9,28.38,2,34.84,2,38.1
Kaiyo,9307,201,1994,1,10,15,34,4.999,190.378,357.59,2,-9.99,9,-99,-9.9,1008,-99.9,28.39,2,-9.999,9,38.1
Kaiyo,9307,202,1994,1,10,15,58,5.001,190.463,-9.99,9,392.48,2,-99,-9.9,1007.8,-99.9,28.35,2,34.81,2,38
Kaiyo,9307,203,1994,1,10,16,34,5.002,190.591,357.55,2,-9.99,9,-99,-9.9,1008.7,-99.9,28.34,2,-9.999,9,38
Kaiyo,9307,204,1994,1,10,16,58,5.002,190.676,-9.99,9,397.09,2,-99,-9.9,1008.7,-99.9,28.31,2,34.79,2,37.9
Kaiyo,9307,205,1994,1,10,17,34,5.004,190.805,357.59,2,-9.99,9,-99,-9.9,1008.8,-99.9,28.29,2,-9.999,9,37.9
Kaiyo,9307,206,1994,1,10,17,58,5.008,190.888,-9.99,9,393.68,2,-99,-9.9,1009.2,-99.9,28.33,2,34.81,2,38
Kaiyo,9307,207,1994,1,10,18,34,5.006,190.978,357.64,2,-9.99,9,-99,-9.9,1009.5,-99.9,28.51,2,-9.999,9,38.4
Kaiyo,9307,208,1994,1,10,18,58,5.003,191.001,-9.99,9,382.7,2,-99,-9.9,1009.7,-99.9,28.55,2,34.77,2,38.5
Kaiyo,9307,209,1994,1,10,19,34,5.014,191.002,357.62,2,-9.99,9,-99,-9.9,1009.7,-99.9,28.53,2,-9.999,9,38.4
Kaiyo,9307,210,1994,1,10,19,58,4.998,191.02,-9.99,9,383.79,2,-99,-9.9,1009.8,-99.9,28.63,2,34.72,2,38.6
Kaiyo,9307,211,1994,1,10,20,34,5.009,191.023,358.04,2,-9.99,9,-99,-9.9,1009.4,-99.9,28.71,2,-9.999,9,38.8
Kaiyo,9307,212,1994,1,10,20,58,5.016,191.027,-9.99,9,387.84,2,-99,-9.9,1009.7,-99.9,28.77,2,34.7,2,39
Kaiyo,9307,213,1994,1,10,21,34,5.021,191.038,357.74,2,-9.99,9,-99,-9.9,1009.5,-99.9,28.68,2,-9.999,9,38.7
Kaiyo,9307,214,1994,1,10,21,58,5.009,191.061,-9.99,9,386.07,2,-99,-9.9,1009.2,-99.9,28.73,2,34.69,2,38.9
Kaiyo,9307,215,1994,1,10,22,34,4.976,191.159,357.85,2,-9.99,9,-99,-9.9,1008.8,-99.9,28.73,2,-9.999,9,38.9
Kaiyo,9307,216,1994,1,10,22,58,4.958,191.224,-9.99,9,381.6,2,-99,-9.9,1008.7,-99.9,28.76,2,34.68,2,38.9
Kaiyo,9307,217,1994,1,10,23,34,4.929,191.321,357.82,2,-9.99,9,-99,-9.9,1008.2,-99.9,28.82,2,-9.999,9,39.1
Kaiyo,9307,218,1994,1,10,23,58,4.91,191.383,-9.99,9,379.34,2,-99,-9.9,1007.8,-99.9,28.88,2,34.66,2,39.2
Kaiyo,9307,219,1994,1,11,0,34,4.88,191.478,357.75,2,-9.99,9,-99,-9.9,1007.2,-99.9,28.92,2,-9.999,9,39.3
Kaiyo,9307,220,1994,1,11,0,58,4.864,191.541,-9.99,9,378.61,2,-99,-9.9,1007,-99.9,28.94,2,34.63,2,39.3
Kaiyo,9307,221,1994,1,11,1,34,4.841,191.641,357.74,2,-9.99,9,-99,-9.9,1006.4,-99.9,28.86,2,-9.999,9,39.2
Kaiyo,9307,222,1994,1,11,1,58,4.825,191.704,-9.99,9,383.02,2,-99,-9.9,1006.5,-99.9,28.86,2,34.63,2,39.2
Kaiyo,9307,223,1994,1,11,2,34,4.817,191.751,357.9,2,-9.99,9,-99,-9.9,1006.8,-99.9,28.86,2,-9.999,9,39.2
Kaiyo,9307,224,1994,1,11,2,58,4.817,191.756,-9.99,9,385.83,2,-99,-9.9,1006.8,-99.9,28.86,2,34.63,2,39.2
Kaiyo,9307,225,1994,1,11,3,34,4.796,191.846,357.69,2,-9.99,9,-99,-9.9,1006.8,-99.9,28.82,2,-9.999,9,39.1